Regional Weather Roundup
Issued by NWS Upton, NY

Current Version | Previous Version | Text Only | Print | Product List | Glossary On
Versions: 1 2 3 4 5 6 7 8 9 10 11 12 13 14 15 16 17 18 19 20 21 22 23 24 25 26
000
ASUS41 KOKX 280704
RWROKX

REGIONAL WEATHER ROUNDUP
NATIONAL WEATHER SERVICE NEW YORK NY
300 AM EDT THU APR 28 2016

NOTE: "FAIR" INDICATES FEW OR NO CLOUDS BELOW 12,000 FEET WITH NO
SIGNIFICANT WEATHER AND/OR OBSTRUCTIONS TO VISIBILITY.

NYZ071-072-176-178-NJZ106-104-280800-
NEW YORK CITY METRO AREA


CITY           SKY/WX    TMP DP  RH WIND       PRES   REMARKS
CENTRAL PARK   PTCLDY    51  43  74 VRB3      29.95R
LAGUARDIA APRT PTCLDY    54  45  71 N5        29.92R
KENNEDY INTL   MOCLDY    51  45  79 NW5       29.93R
NEWARK/LIBERTY MOCLDY    49  44  83 CALM      29.92R
BRNX BOT. GARD   N/A     50  39  66 N1        29.92F
TETERBORO      PTCLDY    50  42  74 N6        29.92R
$$

NYZ177-179-078>081-280800-
LONG ISLAND NEW YORK

CITY           SKY/WX    TMP DP  RH WIND       PRES   REMARKS
FARMINGDALE    PTCLDY    47  42  83 N6        29.93R
ISLIP          PTCLDY    48  44  86 N8        29.92R
SHIRLEY        PTCLDY    46  43  89 N9        29.93R
RIVERHEAD        N/A     48  43  81 N8        29.93R
WESTHAMPTON    CLOUDY    32  32 100 N5        29.94  FOG     WCI  27
EAST HAMPTON   FAIR      45  43  92 NW6       29.92R
MONTAUK POINT    N/A     48  43  82 NW6       29.93R
$$

NYZ052-065-067-280800-
HUDSON VALLEY

CITY           SKY/WX    TMP DP  RH WIND       PRES   REMARKS
WHITE PLAINS   CLOUDY    45  30  55 N7        29.93R
NEWBURGH       CLEAR    N/A N/A N/A E12       29.95R
MONTGOMERY     CLOUDY    42  29  59 CALM      29.94R
POUGHKEEPSIE   CLOUDY    41  28  60 CALM      29.94R
ALBANY         PTCLDY    40  18  41 NW7       29.96S
$$

NJZ001-105-106-008-010-013-015-019>022-104-280800-
NEW JERSEY

CITY           SKY/WX    TMP DP  RH WIND       PRES   REMARKS
NEWARK/LIBERTY MOCLDY    49  44  83 CALM      29.92R
TETERBORO      PTCLDY    50  42  74 N6        29.92R
CALDWELL       PTCLDY    46  42  86 CALM      29.94R
MORRISTOWN     PTCLDY    41  39  93 CALM      29.93R
SOMERVILLE     MOCLDY    39  37  92 CALM      29.91S
SUSSEX         MOCLDY    41  37  86 CALM      29.96R
ANDOVER          N/A     42  40  92 VRB3      29.95R
TRENTON        PTCLDY    45  42  89 N3        29.92F FOG
MILLVILLE      CLOUDY    46  44  93 SW3       29.93F
ATLANTIC CITY  CLOUDY    43  41  93 NW3       29.93F
WRIGHTSTOWN    PTCLDY    44  42  95 S2        29.90S
TOMS RIVER     PTCLDY    39  36  87 CALM      29.93S
BELMAR         CLOUDY    45  45 100 W5        29.93S
$$

PAZ047>061-062-071-280800-
EASTERN PENNSYLVANIA

CITY           SKY/WX    TMP DP  RH WIND       PRES   REMARKS
PHILADELPHIA   CLOUDY    50  45  83 CALM      29.94S
ALLENTOWN      CLOUDY    44  42  93 CALM      29.93S FOG
SCRANTON       MOCLDY    44  20  38 N6        29.97R
$$

CTZ002-004>006-009-010-012-RIZ004-006-007-MAZ004-011-015-280800-
SOUTHERN NEW ENGLAND
 IN CT

CITY           SKY/WX    TMP DP  RH WIND       PRES   REMARKS
BRADLEY INTL   PTCLDY    43  17  35 NW7       29.93R
HARTFORD       CLEAR     49  16  26 NW6       29.94R
DANBURY        CLOUDY    41  26  55 CALM      29.96R
WTRBRY/OXFORD    N/A     39  19  45 N8        29.96R WCI  34
BRIDGEPORT     PTCLDY    47  39  74 NW3       29.93R
MERIDEN        CLOUDY    38  35  89 CALM      29.95R
NEW HAVEN      CLOUDY    45  29  53 N6        29.93R
CHESTER        FAIR      46  23  39 NW10      29.92S
GROTON         CLEAR     39  39 100 NE3       29.92R
WILLIMANTIC    CLEAR     39  35  86 CALM      29.94R

 IN RI

CITY           SKY/WX    TMP DP  RH WIND       PRES   REMARKS
PROVIDENCE     CLEAR     44  35  70 N8        29.93R
BLOCK ISLAND   PTCLDY    45  41  86 NW7       29.92R
WESTERLY       CLEAR     40  34  79 CALM      29.92R

 IN MA

CITY           SKY/WX    TMP DP  RH WIND       PRES   REMARKS
BOSTON         PTCLDY    45  17  32 N9        29.94R
WORCESTER      CLOUDY    42  15  33 N7        29.92R
WESTFIELD      PTCLDY    40  17  39 N6        29.93R
PROVINCETOWN   CLEAR     44  32  62 N10       29.93R
NANTUCKET      CLEAR     47  41  80 NW14      29.89S
$$

ANZ330-335-338-340-345-350-353-355-280800-
COASTAL MARINE OBSERVATIONS


STATION/POSITION TIME  SKY/WX   TEMP    WIND        PRES    VSBY  WAVE
                                AIR SEA DIR/SP/G                  HT/PER
                 (UTC)          (F)     (DEG/KT/KT) (MB)    (MI)  (FT/S)
NY HARB ENTRANCE 0550            51 52  260/  8/  8 1012.6          3/ 7
20S FIRE ISLAND  0550            49 49  260/ 10/ 12 1012.8          3/ 7
GREAT SOUTH BAY  0600            52 58  340/  8/ 10   N/A
23 SSW MONTAUK P 0550            48 47  280/ 10/ 12 1012.5          3/ 8
15 E BARNEGAT LI 0622               51                N/A           3/ 6
HUDSON CANYON    0550            49 49              1013.1          3/ 6
KINGS POINT      0600            52 53              1012.5
EXECUTION ROCKS  NOT AVBL
CENTRAL LI SOUND 0645            49      10/ 10/ 10   N/A           1/ 3
EASTERN LI SOUND 0600            47 47  330/  8/ 10   N/A
ROBBINS REEF     0600            52     300/  4/  5 1012.3
$$


>>>>>>>>>>>>>>>>>>>>>>>>>>>> KEY <<<<<<<<<<<<<<<<<<<<<<<<<<<
>                                                          <
>     SKY/WX - SKY CONDITION/PRESENT WEATHER               <
>     TMP    - TEMPERATURE IN FAHRENHEIT                   <
>     DP     - DEWPOINT IN FAHRENHEIT                      <
>     RH     - RELATIVE HUMIDITY IN PERCENT                <
>     WIND   - DIRECTION AND SPEED IN MPH                  <
>     PRES   - MEAN SEA LEVEL PRESSURE IN INCHES OF HG     <
>     WCI    - WIND CHILL INDEX                            <
>     VSB    - VISIBILITY IN MILES                         <
>     HX     - HEAT INDEX                                  <
>     TC     - TEMPERATURE IN CELSIUS                      <
>     VRB    - VARIABLE WIND DIRECTION                     <
>                                                          <
>>>>>>>>>>>>>>>>>>>>>>>>>>>> KEY <<<<<<<<<<<<<<<<<<<<<<<<<<<






USA.gov is the U.S. government's official web portal to all federal, state and local government web resources and services.